| time (UTC) | temp F | wind direction | speed MPH | gust MPH | rain 1hr in | rain 24hr in | rain mn in | humidity % | barometer mb |
| 20260508234239 | 76 | 0.0 | 2.0 | 0.00 | 0.00 | 0.00 | 81 | 1009.4 | |
| 20260508233737 | 76 | 0.0 | 2.0 | 0.00 | 0.00 | 0.00 | 81 | 1009.3 | |
| 20260508233235 | 76 | 0.0 | 0.0 | 0.00 | 0.00 | 0.00 | 81 | 1009.4 | |
| 20260508232731 | 76 | 0.0 | 3.0 | 0.00 | 0.00 | 0.00 | 81 | 1009.3 | |
| 20260508232229 | 76 | 0.0 | 3.0 | 0.00 | 0.00 | 0.00 | 80 | 1009.3 | |
| 20260508231727 | 76 | 0.0 | 4.0 | 0.00 | 0.00 | 0.00 | 81 | 1009.2 | |
| 20260508231225 | 76 | 170 | 1.0 | 4.0 | 0.00 | 0.00 | 0.00 | 80 | 1009.2 |
| 20260508230721 | 76 | 0.0 | 4.0 | 0.00 | 0.00 | 0.00 | 80 | 1009.3 | |
| 20260508230219 | 76 | 0.0 | 3.0 | 0.00 | 0.00 | 0.00 | 79 | 1009.2 | |
| 20260508225715 | 76 | 0.0 | 1.0 | 0.00 | 0.00 | 0.00 | 79 | 1009.2 | |
| 20260508225213 | 76 | 0.0 | 1.0 | 0.00 | 0.00 | 0.00 | 79 | 1009.2 | |
| 20260508224711 | 76 | 0.0 | 1.0 | 0.00 | 0.00 | 0.00 | 79 | 1009.2 | |
| 20260508224209 | 77 | 0.0 | 1.0 | 0.00 | 0.00 | 0.00 | 78 | 1009.3 | |
| 20260508223705 | 77 | 0.0 | 8.0 | 0.00 | 0.00 | 0.00 | 78 | 1009.3 | |
| 20260508223203 | 77 | 167 | 1.0 | 8.0 | 0.00 | 0.00 | 0.00 | 79 | 1009.3 |
| 20260508222701 | 77 | 0.0 | 2.0 | 0.00 | 0.00 | 0.00 | 78 | 1009.3 | |
| 20260508222159 | 77 | 0.0 | 2.0 | 0.00 | 0.00 | 0.00 | 78 | 1009.3 | |
| 20260508221655 | 77 | 0.0 | 2.0 | 0.00 | 0.00 | 0.00 | 78 | 1009.4 | |
| 20260508221153 | 77 | 0.0 | 1.0 | 0.00 | 0.00 | 0.00 | 77 | 1009.4 | |
| 20260508220651 | 77 | 0.0 | 1.0 | 0.00 | 0.00 | 0.00 | 78 | 1009.4 | |
| 20260508220149 | 77 | 0.0 | 0.0 | 0.00 | 0.00 | 0.00 | 77 | 1009.5 | |
| 20260508215645 | 77 | 0.0 | 2.0 | 0.00 | 0.00 | 0.00 | 76 | 1009.6 | |
| 20260508215143 | 77 | 0.0 | 3.0 | 0.00 | 0.00 | 0.00 | 76 | 1009.6 | |
| 20260508214641 | 77 | 0.0 | 3.0 | 0.00 | 0.00 | 0.00 | 75 | 1009.6 | |
| 20260508214139 | 78 | 165 | 1.0 | 3.0 | 0.00 | 0.00 | 0.00 | 75 | 1009.5 |
| 20260508213635 | 78 | 0.0 | 3.0 | 0.00 | 0.00 | 0.00 | 74 | 1009.5 | |
| 20260508213133 | 79 | 0.0 | 3.0 | 0.00 | 0.00 | 0.00 | 73 | 1009.7 | |
| 20260508212631 | 79 | 0.0 | 1.0 | 0.00 | 0.00 | 0.00 | 73 | 1009.7 | |
| 20260508212129 | 80 | 0.0 | 3.0 | 0.00 | 0.00 | 0.00 | 72 | 1009.9 | |
| 20260508211625 | 80 | 0.0 | 3.0 | 0.00 | 0.00 | 0.00 | 72 | 1009.9 | |
| 20260508211123 | 80 | 0.0 | 2.0 | 0.00 | 0.00 | 0.00 | 73 | 1010.0 | |
| 20260508210621 | 79 | 0.0 | 4.0 | 0.00 | 0.00 | 0.00 | 73 | 1010.1 | |
| 20260508210119 | 79 | 0.0 | 4.0 | 0.00 | 0.00 | 0.00 | 76 | 1010.1 | |
| 20260508205615 | 78 | 0.0 | 4.0 | 0.00 | 0.00 | 0.00 | 75 | 1010.3 | |
| 20260508205113 | 78 | 0.0 | 4.0 | 0.00 | 0.00 | 0.00 | 74 | 1010.5 | |
| 20260508204611 | 78 | 0.0 | 4.0 | 0.00 | 0.00 | 0.00 | 73 | 1010.6 | |
| 20260508204109 | 78 | 0.0 | 3.0 | 0.00 | 0.00 | 0.00 | 74 | 1010.5 | |
| 20260508203605 | 78 | 0.0 | 3.0 | 0.00 | 0.00 | 0.00 | 73 | 1010.6 | |
| 20260508203103 | 78 | 0.0 | 6.0 | 0.00 | 0.00 | 0.00 | 75 | 1010.6 | |
| 20260508202559 | 78 | 107 | 1.0 | 6.0 | 0.00 | 0.00 | 0.00 | 75 | 1010.8 |
| 20260508202057 | 77 | 0.0 | 2.0 | 0.00 | 0.00 | 0.00 | 74 | 1010.7 | |
| 20260508201555 | 78 | 0.0 | 3.0 | 0.00 | 0.00 | 0.00 | 73 | 1010.8 | |
| 20260508201053 | 78 | 0.0 | 3.0 | 0.00 | 0.00 | 0.00 | 74 | 1010.8 | |
| 20260508200549 | 77 | 0.0 | 4.0 | 0.00 | 0.00 | 0.00 | 75 | 1010.9 | |
| 20260508200047 | 78 | 0.0 | 4.0 | 0.00 | 0.00 | 0.00 | 74 | 1011.0 | |
| 20260508195545 | 78 | 0.0 | 4.0 | 0.00 | 0.00 | 0.00 | 73 | 1011.1 | |
| 20260508195043 | 78 | 0.0 | 4.0 | 0.00 | 0.00 | 0.00 | 73 | 1011.2 | |
| 20260508194539 | 77 | 0.0 | 3.0 | 0.00 | 0.00 | 0.00 | 75 | 1011.1 | |
| 20260508194037 | 77 | 0.0 | 2.0 | 0.00 | 0.00 | 0.00 | 74 | 1011.3 | |
| 20260508193535 | 76 | 0.0 | 4.0 | 0.00 | 0.00 | 0.00 | 75 | 1011.4 | |
| 20260508193032 | 76 | 0.0 | 1.0 | 0.00 | 0.00 | 0.00 | 75 | 1011.5 | |
| 20260508192531 | 76 | 0.0 | 2.0 | 0.00 | 0.00 | 0.00 | 76 | 1011.4 | |
| 20260508192029 | 76 | 0.0 | 2.0 | 0.00 | 0.00 | 0.00 | 74 | 1011.4 | |
| 20260508191526 | 76 | 0.0 | 1.0 | 0.00 | 0.00 | 0.00 | 73 | 1011.4 | |
| 20260508191023 | 76 | 0.0 | 1.0 | 0.00 | 0.00 | 0.00 | 74 | 1011.6 | |
| 20260508190523 | 76 | 0.0 | 0.0 | 0.00 | 0.00 | 0.00 | 75 | 1011.6 | |
| 20260508190019 | 76 | 0.0 | 2.0 | 0.00 | 0.00 | 0.00 | 77 | 1011.7 | |
| 20260508185516 | 75 | 0.0 | 4.0 | 0.00 | 0.00 | 0.00 | 77 | 1011.7 | |
| 20260508185013 | 75 | 0.0 | 4.0 | 0.00 | 0.00 | 0.00 | 77 | 1011.8 | |
| 20260508184511 | 74 | 0.0 | 1.0 | 0.00 | 0.00 | 0.00 | 78 | 1011.9 | |
| 20260508183908 | 74 | 0.0 | 4.0 | 0.00 | 0.00 | 0.00 | 76 | 1012.0 | |
| 20260508183405 | 74 | 0.0 | 2.0 | 0.00 | 0.00 | 0.00 | 76 | 1012.0 | |
| 20260508182903 | 74 | 85 | 1.0 | 2.0 | 0.00 | 0.00 | 0.00 | 77 | 1012.1 |
| 20260508182401 | 73 | 0.0 | 1.0 | 0.00 | 0.00 | 0.00 | 78 | 1012.1 | |
| 20260508181858 | 73 | 0.0 | 1.0 | 0.00 | 0.00 | 0.00 | 77 | 1012.2 | |
| 20260508181355 | 73 | 0.0 | 1.0 | 0.00 | 0.00 | 0.00 | 78 | 1012.4 | |
| 20260508180853 | 73 | 0.0 | 3.0 | 0.00 | 0.00 | 0.00 | 78 | 1012.4 | |
| 20260508180351 | 73 | 0.0 | 3.0 | 0.00 | 0.00 | 0.00 | 79 | 1012.5 | |
| 20260508175848 | 72 | 0.0 | 2.0 | 0.00 | 0.00 | 0.00 | 79 | 1012.4 | |
| 20260508175344 | 72 | 0.0 | 2.0 | 0.00 | 0.00 | 0.00 | 78 | 1012.5 | |
| 20260508174843 | 72 | 0.0 | 2.0 | 0.00 | 0.00 | 0.00 | 76 | 1012.5 | |
| 20260508174341 | 72 | 0.0 | 2.0 | 0.00 | 0.00 | 0.00 | 77 | 1012.6 | |
| 20260508173838 | 72 | 0.0 | 3.0 | 0.00 | 0.00 | 0.00 | 78 | 1012.6 | |
| 20260508173334 | 71 | 0.0 | 3.0 | 0.00 | 0.00 | 0.00 | 79 | 1012.6 | |
| 20260508172833 | 71 | 0.0 | 3.0 | 0.00 | 0.00 | 0.00 | 78 | 1012.7 | |
| 20260508172331 | 70 | 0.0 | 3.0 | 0.00 | 0.00 | 0.00 | 80 | 1012.8 | |
| 20260508171827 | 70 | 0.0 | 0.0 | 0.00 | 0.00 | 0.00 | 79 | 1012.8 | |
| 20260508171324 | 70 | 0.0 | 0.0 | 0.00 | 0.00 | 0.00 | 81 | 1012.8 | |
| 20260508170822 | 69 | 0.0 | 0.0 | 0.00 | 0.00 | 0.00 | 80 | 1012.9 | |
| 20260508170318 | 69 | 0.0 | 0.0 | 0.00 | 0.00 | 0.00 | 81 | 1013.1 | |
| 20260508165817 | 68 | 0.0 | 0.0 | 0.00 | 0.00 | 0.00 | 81 | 1013.2 | |
| 20260508165314 | 68 | 0.0 | 0.0 | 0.00 | 0.00 | 0.00 | 80 | 1013.4 | |
| 20260508164812 | 68 | 0.0 | 0.0 | 0.00 | 0.00 | 0.00 | 81 | 1013.6 | |
| 20260508164308 | 68 | 0.0 | 0.0 | 0.00 | 0.00 | 0.00 | 80 | 1013.6 | |
| 20260508163807 | 68 | 0.0 | 0.0 | 0.00 | 0.00 | 0.00 | 79 | 1013.7 | |
| 20260508163304 | 68 | 0.0 | 0.0 | 0.00 | 0.00 | 0.00 | 80 | 1013.6 | |
| 20260508162802 | 67 | 0.0 | 0.0 | 0.00 | 0.00 | 0.00 | 80 | 1013.6 | |
| 20260508162258 | 67 | 0.0 | 0.0 | 0.00 | 0.00 | 0.00 | 81 | 1013.6 | |
| 20260508161757 | 67 | 0.0 | 0.0 | 0.00 | 0.00 | 0.00 | 81 | 1013.6 | |
| 20260508161254 | 67 | 0.0 | 0.0 | 0.00 | 0.00 | 0.00 | 81 | 1013.7 | |
| 20260508160752 | 67 | 0.0 | 0.0 | 0.00 | 0.00 | 0.00 | 81 | 1013.7 | |
| 20260508160248 | 66 | 0.0 | 0.0 | 0.00 | 0.00 | 0.00 | 81 | 1013.8 | |
| 20260508155747 | 66 | 0.0 | 0.0 | 0.00 | 0.00 | 0.00 | 82 | 1013.9 | |
| 20260508155244 | 66 | 0.0 | 0.0 | 0.00 | 0.00 | 0.00 | 82 | 1014.0 | |
| 20260508154742 | 66 | 0.0 | 0.0 | 0.00 | 0.00 | 0.00 | 82 | 1014.0 | |
| 20260508154238 | 66 | 0.0 | 3.0 | 0.00 | 0.00 | 0.00 | 81 | 1014.1 | |
| 20260508153737 | 66 | 0.0 | 3.0 | 0.00 | 0.00 | 0.00 | 80 | 1014.1 | |
| 20260508153234 | 66 | 0.0 | 0.0 | 0.00 | 0.00 | 0.00 | 81 | 1014.2 | |
| 20260508152732 | 66 | 0.0 | 0.0 | 0.00 | 0.00 | 0.00 | 81 | 1014.1 | |
| 20260508152228 | 66 | 0.0 | 0.0 | 0.00 | 0.00 | 0.00 | 81 | 1014.0 | |
| 20260508151727 | 66 | 0.0 | 1.0 | 0.00 | 0.00 | 0.00 | 81 | 1014.0 | |
| 20260508151224 | 66 | 0.0 | 3.0 | 0.00 | 0.00 | 0.00 | 80 | 1014.0 | |
| 20260508150721 | 66 | 0.0 | 3.0 | 0.00 | 0.00 | 0.00 | 80 | 1014.0 | |
| 20260508150218 | 66 | 0.0 | 2.0 | 0.00 | 0.00 | 0.00 | 81 | 1014.0 | |
| 20260508145716 | 66 | 0.0 | 2.0 | 0.00 | 0.00 | 0.00 | 82 | 1014.0 | |
| 20260508145214 | 66 | 0.0 | 2.0 | 0.00 | 0.00 | 0.00 | 82 | 1014.0 | |
| 20260508144711 | 65 | 0.0 | 0.0 | 0.00 | 0.00 | 0.00 | 82 | 1014.1 | |
| 20260508144208 | 65 | 0.0 | 0.0 | 0.00 | 0.00 | 0.00 | 81 | 1013.9 | |
| 20260508143706 | 65 | 0.0 | 0.0 | 0.00 | 0.00 | 0.00 | 82 | 1013.8 | |
| 20260508143202 | 65 | 0.0 | 1.0 | 0.00 | 0.00 | 0.00 | 81 | 1013.8 | |
| 20260508142701 | 65 | 0.0 | 1.0 | 0.00 | 0.00 | 0.00 | 82 | 1014.0 | |
| 20260508142158 | 64 | 0.0 | 0.0 | 0.00 | 0.00 | 0.00 | 82 | 1014.0 | |
| 20260508141656 | 64 | 0.0 | 0.0 | 0.00 | 0.00 | 0.00 | 81 | 1014.1 | |
| 20260508141152 | 65 | 0.0 | 0.0 | 0.00 | 0.00 | 0.00 | 81 | 1014.1 | |
| 20260508140651 | 64 | 0.0 | 0.0 | 0.00 | 0.00 | 0.00 | 82 | 1014.0 | |
| 20260508140148 | 64 | 0.0 | 2.0 | 0.00 | 0.00 | 0.00 | 82 | 1014.0 | |
| 20260508135646 | 64 | 0.0 | 2.0 | 0.00 | 0.00 | 0.00 | 82 | 1013.9 | |
| 20260508135142 | 63 | 0.0 | 2.0 | 0.00 | 0.00 | 0.00 | 83 | 1013.7 | |
| 20260508134641 | 63 | 0.0 | 0.0 | 0.00 | 0.00 | 0.00 | 84 | 1013.7 | |
| 20260508134138 | 63 | 0.0 | 0.0 | 0.00 | 0.00 | 0.00 | 83 | 1013.9 | |
| 20260508133636 | 62 | 0.0 | 0.0 | 0.00 | 0.00 | 0.00 | 84 | 1014.3 | |
| 20260508133132 | 62 | 0.0 | 0.0 | 0.00 | 0.00 | 0.00 | 85 | 1014.3 | |
| 20260508132631 | 62 | 0.0 | 0.0 | 0.00 | 0.00 | 0.00 | 85 | 1014.5 | |
| 20260508132128 | 61 | 0.0 | 0.0 | 0.00 | 0.00 | 0.00 | 86 | 1014.2 | |
| 20260508131626 | 61 | 0.0 | 0.0 | 0.00 | 0.00 | 0.00 | 86 | 1014.4 | |
| 20260508131122 | 61 | 0.0 | 0.0 | 0.00 | 0.00 | 0.00 | 86 | 1014.5 | |
| 20260508130620 | 61 | 0.0 | 0.0 | 0.00 | 0.00 | 0.00 | 86 | 1014.5 | |
| 20260508130118 | 61 | 0.0 | 0.0 | 0.00 | 0.00 | 0.00 | 87 | 1014.4 | |
| 20260508125615 | 60 | 0.0 | 0.0 | 0.00 | 0.00 | 0.00 | 87 | 1014.3 | |
| 20260508125112 | 60 | 0.0 | 0.0 | 0.00 | 0.00 | 0.00 | 87 | 1014.4 | |
| 20260508124610 | 60 | 0.0 | 0.0 | 0.00 | 0.00 | 0.00 | 87 | 1014.2 | |
| 20260508124108 | 60 | 0.0 | 0.0 | 0.00 | 0.00 | 0.00 | 88 | 1014.3 | |
| 20260508123605 | 60 | 0.0 | 0.0 | 0.00 | 0.00 | 0.00 | 87 | 1014.4 | |
| 20260508123102 | 60 | 0.0 | 0.0 | 0.00 | 0.00 | 0.00 | 88 | 1014.5 | |
| 20260508122600 | 60 | 0.0 | 0.0 | 0.00 | 0.00 | 0.00 | 88 | 1014.4 | |
| 20260508122058 | 60 | 0.0 | 0.0 | 0.00 | 0.00 | 0.00 | 88 | 1014.4 | |
| 20260508121555 | 60 | 0.0 | 0.0 | 0.00 | 0.00 | 0.00 | 87 | 1014.5 | |
| 20260508121052 | 60 | 0.0 | 0.0 | 0.00 | 0.00 | 0.00 | 88 | 1014.6 | |
| 20260508120550 | 60 | 0.0 | 0.0 | 0.00 | 0.00 | 0.00 | 88 | 1014.8 | |
| 20260508120048 | 60 | 0.0 | 0.0 | 0.00 | 0.00 | 0.00 | 88 | 1014.7 | |
| 20260508115545 | 60 | 0.0 | 0.0 | 0.00 | 0.00 | 0.00 | 88 | 1014.6 | |
| 20260508115042 | 60 | 0.0 | 0.0 | 0.00 | 0.00 | 0.00 | 88 | 1014.6 | |
| 20260508114540 | 60 | 0.0 | 0.0 | 0.00 | 0.00 | 0.00 | 88 | 1014.9 | |
| 20260508114036 | 60 | 0.0 | 0.0 | 0.00 | 0.00 | 0.00 | 88 | 1015.1 | |
| 20260508113535 | 60 | 0.0 | 0.0 | 0.00 | 0.00 | 0.00 | 88 | 1015.1 | |
| 20260508113032 | 60 | 0.0 | 0.0 | 0.00 | 0.00 | 0.00 | 88 | 1015.1 | |
| 20260508112530 | 60 | 0.0 | 0.0 | 0.00 | 0.00 | 0.00 | 88 | 1015.0 | |
| 20260508112026 | 60 | 0.0 | 0.0 | 0.00 | 0.00 | 0.00 | 88 | 1014.9 | |
| 20260508111525 | 60 | 0.0 | 0.0 | 0.00 | 0.00 | 0.00 | 88 | 1014.8 | |
| 20260508111022 | 60 | 0.0 | 0.0 | 0.00 | 0.00 | 0.00 | 88 | 1014.8 | |
| 20260508110520 | 60 | 0.0 | 0.0 | 0.00 | 0.00 | 0.00 | 88 | 1014.7 | |
| 20260508110016 | 60 | 0.0 | 1.0 | 0.00 | 0.00 | 0.00 | 88 | 1014.6 | |
| 20260508105514 | 60 | 0.0 | 4.0 | 0.00 | 0.00 | 0.00 | 88 | 1014.6 | |
| 20260508105012 | 60 | 0.0 | 0.0 | 0.00 | 0.00 | 0.00 | 89 | 1014.6 | |
| 20260508104509 | 60 | 0.0 | 0.0 | 0.00 | 0.00 | 0.00 | 89 | 1014.4 | |
| 20260508104006 | 60 | 0.0 | 0.0 | 0.00 | 0.00 | 0.00 | 89 | 1014.6 | |
| 20260508103504 | 60 | 0.0 | 0.0 | 0.00 | 0.00 | 0.00 | 89 | 1014.8 | |
| 20260508103002 | 60 | 0.0 | 0.0 | 0.00 | 0.00 | 0.00 | 89 | 1014.9 | |
| 20260508102459 | 60 | 0.0 | 0.0 | 0.00 | 0.00 | 0.00 | 89 | 1015.0 | |
| 20260508101956 | 60 | 0.0 | 0.0 | 0.00 | 0.00 | 0.00 | 89 | 1015.1 | |
| 20260508101454 | 60 | 0.0 | 0.0 | 0.00 | 0.00 | 0.00 | 89 | 1015.0 | |
| 20260508100952 | 60 | 0.0 | 0.0 | 0.00 | 0.00 | 0.00 | 88 | 1015.3 | |
| 20260508100449 | 60 | 0.0 | 2.0 | 0.00 | 0.00 | 0.00 | 88 | 1015.3 | |
| 20260508095946 | 60 | 0.0 | 2.0 | 0.00 | 0.00 | 0.00 | 88 | 1015.3 | |
| 20260508095444 | 60 | 0.0 | 1.0 | 0.00 | 0.00 | 0.00 | 87 | 1015.3 | |
| 20260508094942 | 60 | 0.0 | 1.0 | 0.00 | 0.00 | 0.00 | 87 | 1015.2 | |
| 20260508094439 | 60 | 0.0 | 1.0 | 0.00 | 0.00 | 0.00 | 86 | 1015.5 | |
| 20260508093936 | 60 | 0.0 | 0.0 | 0.00 | 0.00 | 0.00 | 86 | 1015.4 | |
| 20260508093434 | 60 | 0.0 | 0.0 | 0.00 | 0.00 | 0.00 | 85 | 1015.4 | |
| 20260508092932 | 60 | 0.0 | 0.0 | 0.00 | 0.00 | 0.00 | 84 | 1015.5 | |
| 20260508092429 | 60 | 0.0 | 0.0 | 0.00 | 0.00 | 0.00 | 84 | 1015.4 | |
| 20260508091926 | 60 | 0.0 | 0.0 | 0.00 | 0.00 | 0.00 | 84 | 1015.2 | |
| 20260508091424 | 60 | 0.0 | 0.0 | 0.00 | 0.00 | 0.00 | 84 | 1015.1 | |
| 20260508090920 | 60 | 0.0 | 0.0 | 0.00 | 0.00 | 0.00 | 84 | 1014.9 | |
| 20260508090419 | 60 | 0.0 | 0.0 | 0.00 | 0.00 | 0.00 | 84 | 1014.9 | |
| 20260508085916 | 60 | 0.0 | 0.0 | 0.00 | 0.00 | 0.00 | 85 | 1014.9 | |
| 20260508085414 | 60 | 0.0 | 0.0 | 0.00 | 0.00 | 0.00 | 84 | 1014.9 | |
| 20260508084910 | 60 | 0.0 | 0.0 | 0.00 | 0.00 | 0.00 | 84 | 1014.9 | |
| 20260508084408 | 60 | 0.0 | 0.0 | 0.00 | 0.00 | 0.00 | 85 | 1014.6 | |
| 20260508083906 | 60 | 0.0 | 0.0 | 0.00 | 0.00 | 0.00 | 85 | 1014.6 | |
| 20260508083403 | 60 | 0.0 | 0.0 | 0.00 | 0.00 | 0.00 | 84 | 1014.8 | |
| 20260508082900 | 60 | 0.0 | 0.0 | 0.00 | 0.00 | 0.00 | 84 | 1015.0 | |
| 20260508082358 | 60 | 0.0 | 0.0 | 0.00 | 0.00 | 0.00 | 84 | 1014.9 | |
| 20260508081856 | 60 | 0.0 | 0.0 | 0.00 | 0.00 | 0.00 | 85 | 1014.8 | |
| 20260508081353 | 60 | 0.0 | 0.0 | 0.00 | 0.00 | 0.00 | 85 | 1014.6 | |
| 20260508080850 | 59 | 0.0 | 0.0 | 0.00 | 0.00 | 0.00 | 86 | 1014.6 | |
| 20260508080348 | 59 | 0.0 | 0.0 | 0.00 | 0.00 | 0.00 | 86 | 1014.4 | |
| 20260508075846 | 59 | 0.0 | 0.0 | 0.00 | 0.00 | 0.00 | 86 | 1014.5 | |
| 20260508075343 | 59 | 0.0 | 0.0 | 0.00 | 0.00 | 0.00 | 86 | 1014.5 | |
| 20260508074840 | 59 | 0.0 | 0.0 | 0.00 | 0.00 | 0.00 | 87 | 1014.4 | |
| 20260508074338 | 59 | 0.0 | 0.0 | 0.00 | 0.00 | 0.00 | 87 | 1014.4 | |
| 20260508073836 | 59 | 0.0 | 0.0 | 0.00 | 0.00 | 0.00 | 88 | 1014.4 | |
| 20260508073333 | 58 | 0.0 | 0.0 | 0.00 | 0.00 | 0.00 | 88 | 1014.5 | |
| 20260508072830 | 58 | 0.0 | 0.0 | 0.00 | 0.00 | 0.00 | 89 | 1014.6 | |
| 20260508072328 | 58 | 0.0 | 0.0 | 0.00 | 0.00 | 0.00 | 89 | 1014.7 | |
| 20260508071827 | 58 | 0.0 | 0.0 | 0.00 | 0.00 | 0.00 | 89 | 1014.9 | |
| 20260508071323 | 58 | 0.0 | 0.0 | 0.00 | 0.00 | 0.00 | 89 | 1014.9 | |
| 20260508070820 | 58 | 0.0 | 0.0 | 0.00 | 0.00 | 0.00 | 89 | 1014.8 | |
| 20260508070318 | 58 | 0.0 | 0.0 | 0.00 | 0.00 | 0.00 | 90 | 1015.0 | |
| 20260508065816 | 58 | 0.0 | 0.0 | 0.00 | 0.00 | 0.00 | 90 | 1015.3 | |
| 20260508065313 | 58 | 0.0 | 0.0 | 0.00 | 0.00 | 0.00 | 89 | 1015.3 | |
| 20260508064809 | 57 | 0.0 | 0.0 | 0.00 | 0.00 | 0.00 | 89 | 1015.4 | |
| 20260508064308 | 57 | 0.0 | 0.0 | 0.00 | 0.00 | 0.00 | 89 | 1015.4 | |
| 20260508063804 | 57 | 0.0 | 0.0 | 0.00 | 0.00 | 0.00 | 89 | 1015.4 | |
| 20260508063302 | 57 | 0.0 | 0.0 | 0.00 | 0.00 | 0.00 | 89 | 1015.6 | |
| 20260508062759 | 57 | 0.0 | 0.0 | 0.00 | 0.00 | 0.00 | 88 | 1015.8 | |
| 20260508062257 | 57 | 0.0 | 0.0 | 0.00 | 0.00 | 0.00 | 88 | 1015.4 | |
| 20260508061753 | 58 | 0.0 | 0.0 | 0.00 | 0.00 | 0.00 | 88 | 1015.5 | |
| 20260508061252 | 58 | 0.0 | 0.0 | 0.00 | 0.00 | 0.00 | 88 | 1015.6 | |
| 20260508060749 | 58 | 0.0 | 0.0 | 0.00 | 0.00 | 0.00 | 88 | 1015.8 | |
| 20260508060247 | 58 | 0.0 | 0.0 | 0.00 | 0.00 | 0.00 | 88 | 1015.7 | |
| 20260508055743 | 58 | 0.0 | 0.0 | 0.00 | 0.00 | 0.00 | 88 | 1015.7 | |
| 20260508055242 | 58 | 0.0 | 0.0 | 0.00 | 0.00 | 0.00 | 88 | 1015.6 | |
| 20260508054739 | 58 | 0.0 | 0.0 | 0.00 | 0.00 | 0.00 | 88 | 1015.4 | |
| 20260508054237 | 58 | 0.0 | 0.0 | 0.00 | 0.00 | 0.00 | 88 | 1015.3 | |
| 20260508053734 | 58 | 0.0 | 0.0 | 0.00 | 0.00 | 0.00 | 88 | 1015.3 | |
| 20260508053232 | 58 | 0.0 | 0.0 | 0.00 | 0.00 | 0.00 | 88 | 1015.3 | |
| 20260508052729 | 58 | 0.0 | 0.0 | 0.00 | 0.00 | 0.00 | 88 | 1015.5 | |
| 20260508052227 | 58 | 0.0 | 0.0 | 0.00 | 0.00 | 0.00 | 88 | 1015.6 | |
| 20260508051723 | 58 | 0.0 | 0.0 | 0.00 | 0.00 | 0.00 | 88 | 1015.4 | |
| 20260508051222 | 58 | 0.0 | 0.0 | 0.00 | 0.00 | 0.00 | 88 | 1015.5 | |
| 20260508050719 | 58 | 0.0 | 0.0 | 0.00 | 0.00 | 0.00 | 88 | 1015.4 | |
| 20260508050217 | 58 | 0.0 | 0.0 | 0.00 | 0.00 | 0.00 | 88 | 1015.5 | |
| 20260508045713 | 58 | 0.0 | 0.0 | 0.00 | 0.00 | 0.00 | 88 | 1015.8 | |
| 20260508045212 | 58 | 0.0 | 0.0 | 0.00 | 0.00 | 0.00 | 88 | 1015.7 | |
| 20260508044709 | 58 | 0.0 | 0.0 | 0.00 | 0.00 | 0.00 | 88 | 1015.7 | |
| 20260508044207 | 58 | 0.0 | 0.0 | 0.00 | 0.00 | 0.00 | 88 | 1016.2 | |
| 20260508043703 | 58 | 0.0 | 0.0 | 0.00 | 0.00 | 0.00 | 88 | 1016.2 | |
| 20260508043202 | 58 | 0.0 | 0.0 | 0.00 | 0.00 | 0.00 | 88 | 1016.1 | |
| 20260508042659 | 58 | 0.0 | 0.0 | 0.00 | 0.00 | 0.00 | 87 | 1015.7 | |
| 20260508042156 | 58 | 0.0 | 0.0 | 0.00 | 0.00 | 0.00 | 87 | 1015.7 | |
| 20260508041653 | 58 | 0.0 | 0.0 | 0.00 | 0.00 | 0.00 | 87 | 1015.6 | |
| 20260508041151 | 58 | 0.0 | 0.0 | 0.00 | 0.00 | 0.00 | 87 | 1015.8 | |
| 20260508040649 | 58 | 0.0 | 0.0 | 0.00 | 0.00 | 0.00 | 86 | 1016.0 | |
| 20260508040146 | 59 | 0.0 | 0.0 | 0.00 | 0.00 | 0.00 | 86 | 1016.1 | |
| 20260508035643 | 59 | 0.0 | 0.0 | 0.00 | 0.00 | 0.00 | 85 | 1016.1 | |
| 20260508035141 | 59 | 0.0 | 0.0 | 0.00 | 0.00 | 0.00 | 85 | 1016.1 | |
| 20260508034639 | 59 | 0.0 | 0.0 | 0.00 | 0.00 | 0.00 | 85 | 1016.4 | |
| 20260508034136 | 59 | 0.0 | 0.0 | 0.00 | 0.00 | 0.00 | 84 | 1016.5 | |
| 20260508033633 | 59 | 0.0 | 0.0 | 0.00 | 0.00 | 0.00 | 84 | 1016.5 | |
| 20260508033131 | 60 | 0.0 | 0.0 | 0.00 | 0.00 | 0.00 | 84 | 1016.5 | |
| 20260508032629 | 60 | 0.0 | 0.0 | 0.00 | 0.00 | 0.00 | 84 | 1016.3 | |
| 20260508032126 | 60 | 0.0 | 0.0 | 0.00 | 0.00 | 0.00 | 84 | 1016.1 | |
| 20260508031623 | 60 | 0.0 | 0.0 | 0.00 | 0.00 | 0.00 | 83 | 1016.3 | |
| 20260508031121 | 60 | 0.0 | 0.0 | 0.00 | 0.00 | 0.00 | 83 | 1016.5 | |
| 20260508030617 | 60 | 0.0 | 0.0 | 0.00 | 0.00 | 0.00 | 83 | 1016.5 | |
| 20260508030116 | 60 | 0.0 | 0.0 | 0.00 | 0.00 | 0.00 | 83 | 1016.0 | |
| 20260508025613 | 60 | 0.0 | 0.0 | 0.00 | 0.00 | 0.00 | 82 | 1015.4 | |
| 20260508025111 | 60 | 0.0 | 0.0 | 0.00 | 0.00 | 0.00 | 82 | 1015.2 | |
| 20260508024607 | 60 | 0.0 | 0.0 | 0.00 | 0.00 | 0.00 | 82 | 1015.1 | |
| 20260508024106 | 60 | 0.0 | 0.0 | 0.00 | 0.00 | 0.00 | 82 | 1015.2 | |
| 20260508023603 | 61 | 0.0 | 0.0 | 0.00 | 0.00 | 0.00 | 81 | 1015.3 | |
| 20260508023101 | 61 | 0.0 | 0.0 | 0.00 | 0.00 | 0.00 | 81 | 1014.7 | |
| 20260508022557 | 61 | 0.0 | 0.0 | 0.00 | 0.00 | 0.00 | 81 | 1014.4 | |
| 20260508022055 | 61 | 0.0 | 0.0 | 0.00 | 0.00 | 0.00 | 81 | 1014.6 | |
| 20260508021553 | 61 | 0.0 | 0.0 | 0.00 | 0.00 | 0.00 | 80 | 1014.6 | |
| 20260508021050 | 61 | 0.0 | 0.0 | 0.00 | 0.00 | 0.00 | 80 | 1014.5 | |
| 20260508020547 | 61 | 0.0 | 0.0 | 0.00 | 0.00 | 0.00 | 80 | 1014.5 | |
| 20260508020045 | 61 | 0.0 | 0.0 | 0.00 | 0.00 | 0.00 | 80 | 1014.4 | |
| 20260508015543 | 61 | 0.0 | 0.0 | 0.00 | 0.00 | 0.00 | 80 | 1014.5 | |
| 20260508015040 | 61 | 0.0 | 0.0 | 0.00 | 0.00 | 0.00 | 80 | 1014.4 | |
| 20260508014537 | 61 | 0.0 | 0.0 | 0.00 | 0.00 | 0.00 | 80 | 1014.4 | |
| 20260508014035 | 62 | 0.0 | 0.0 | 0.00 | 0.00 | 0.00 | 79 | 1014.5 | |
| 20260508013533 | 62 | 0.0 | 0.0 | 0.00 | 0.00 | 0.00 | 79 | 1014.6 | |
| 20260508013030 | 62 | 0.0 | 0.0 | 0.00 | 0.00 | 0.00 | 79 | 1014.7 | |
| 20260508012527 | 62 | 0.0 | 0.0 | 0.00 | 0.00 | 0.00 | 78 | 1014.6 | |
| 20260508012025 | 62 | 0.0 | 0.0 | 0.00 | 0.00 | 0.00 | 78 | 1014.4 | |
| 20260508011523 | 62 | 0.0 | 0.0 | 0.00 | 0.00 | 0.00 | 77 | 1014.4 | |
| 20260508011020 | 63 | 0.0 | 0.0 | 0.00 | 0.00 | 0.00 | 76 | 1014.3 | |
| 20260508010517 | 63 | 0.0 | 0.0 | 0.00 | 0.00 | 0.00 | 76 | 1014.5 | |
| 20260508010015 | 63 | 0.0 | 0.0 | 0.00 | 0.00 | 0.00 | 76 | 1014.7 | |
| 20260508005513 | 63 | 0.0 | 0.0 | 0.00 | 0.00 | 0.00 | 74 | 1014.9 | |
| 20260508005010 | 64 | 0.0 | 0.0 | 0.00 | 0.00 | 0.00 | 74 | 1015.0 | |
| 20260508004507 | 64 | 0.0 | 2.0 | 0.00 | 0.00 | 0.00 | 73 | 1015.3 | |
| 20260508004005 | 64 | 0.0 | 2.0 | 0.00 | 0.00 | 0.00 | 73 | 1015.2 | |
| 20260508003501 | 64 | 0.0 | 0.0 | 0.00 | 0.00 | 0.00 | 74 | 1015.1 | |
| 20260508003000 | 65 | 0.0 | 0.0 | 0.00 | 0.00 | 0.00 | 74 | 1015.1 | |
| 20260508002457 | 65 | 0.0 | 0.0 | 0.00 | 0.00 | 0.00 | 73 | 1015.2 | |
| 20260508001955 | 65 | 0.0 | 0.0 | 0.00 | 0.00 | 0.00 | 73 | 1015.2 | |
| 20260508001451 | 65 | 0.0 | 0.0 | 0.00 | 0.00 | 0.00 | 74 | 1015.4 | |
| 20260508000949 | 65 | 0.0 | 0.0 | 0.00 | 0.00 | 0.00 | 72 | 1015.5 | |
| 20260508000449 | 66 | 0.0 | 0.0 | 0.00 | 0.00 | 0.00 | 72 | 1015.7 | |
| 20260507235944 | 66 | 0.0 | 0.0 | 0.00 | 0.00 | 0.00 | 70 | 1015.6 | |
| 20260507235441 | 66 | 0.0 | 0.0 | 0.00 | 0.00 | 0.00 | 70 | 1015.8 | |
| 20260507234939 | 66 | 0.0 | 0.0 | 0.00 | 0.00 | 0.00 | 68 | 1016.2 |